When you browse on this site, cookies collect data to enhance your experience and personalize the content and advertising you see.
Visit our Privacy Policy to learn more. By continuing to use the site, you agree to this use of cookies and data.
  • In Germany
  • List of Countries
  • For 7 days
  • Water Temperature
  • Satellite Maps
  • Weather Map
  • Weather Widgets
  • user-avatar
    Login

    Hourly Weather Tibissa

    Today, 19 March, Tuesday

    Time Temperature Precipitation Wind Pressure Humidity
    00:00 +7°C° 0.1 mm 5 mps 685 mmHg 84%
    01:00 +6°C° 0 mm 5 mps 685 mmHg 82%
    02:00 +6°C° 0 mm 4 mps 685 mmHg 82%
    03:00 +5°C° 0 mm 4 mps 684 mmHg 82%
    04:00 +5°C° 0 mm 4 mps 684 mmHg 82%
    05:00 +5°C° 0 mm 4 mps 684 mmHg 83%
    06:00 +4°C° 0 mm 4 mps 684 mmHg 84%
    07:00 +4°C° 0 mm 4 mps 684 mmHg 85%
    08:00 +5°C° 0 mm 4 mps 684 mmHg 79%
    09:00 +6°C° 0 mm 5 mps 684 mmHg 73%
    10:00 +7°C° 0 mm 5 mps 685 mmHg 67%
    11:00 +8°C° 0 mm 6 mps 685 mmHg 63%
    12:00 +9°C° 0 mm 6 mps 684 mmHg 59%
    13:00 +10°C° 0 mm 6 mps 684 mmHg 54%
    14:00 +10°C° 0.2 mm 6 mps 684 mmHg 57%
    15:00 +9°C° 0.2 mm 7 mps 684 mmHg 59%
    16:00 +9°C° 0.2 mm 7 mps 683 mmHg 61%
    17:00 +8°C° 0.7 mm 7 mps 683 mmHg 66%
    18:00 +6°C° 0.7 mm 7 mps 684 mmHg 71%
    19:00 +5°C° 0.7 mm 7 mps 684 mmHg 76%
    20:00 +4°C° 0.3 mm 7 mps 684 mmHg 77%
    21:00 +4°C° 0.3 mm 7 mps 684 mmHg 77%
    22:00 +4°C° 0.3 mm 7 mps 685 mmHg 77%
    23:00 +3°C° 1 mm 7 mps 685 mmHg 79%

    Tomorrow, 20 March, Wednesday

    Time Temperature Precipitation Wind Pressure Humidity
    00:00 +3°C° 1 mm 6 mps 685 mmHg 82%
    01:00 +3°C° 1 mm 6 mps 685 mmHg 84%
    02:00 +3°C° 0.6 mm 6 mps 685 mmHg 84%
    03:00 +3°C° 0.6 mm 6 mps 684 mmHg 85%
    04:00 +2°C° 0.6 mm 5 mps 684 mmHg 86%
    05:00 +2°C° 0.2 mm 5 mps 684 mmHg 86%
    06:00 +2°C° 0.2 mm 5 mps 684 mmHg 86%
    07:00 +2°C° 0.2 mm 5 mps 684 mmHg 86%
    08:00 +3°C° 0.2 mm 5 mps 684 mmHg 84%
    09:00 +3°C° 0.2 mm 5 mps 685 mmHg 82%
    10:00 +5°C° 0.2 mm 5 mps 685 mmHg 79%
    11:00 +5°C° 0.3 mm 5 mps 685 mmHg 77%
    12:00 +6°C° 0.3 mm 5 mps 685 mmHg 75%
    13:00 +6°C° 0.3 mm 5 mps 685 mmHg 73%
    14:00 +6°C° 0.3 mm 5 mps 685 mmHg 74%
    15:00 +6°C° 0.3 mm 5 mps 684 mmHg 76%
    16:00 +6°C° 0.3 mm 5 mps 684 mmHg 78%
    17:00 +6°C° 0.2 mm 5 mps 684 mmHg 81%
    18:00 +5°C° 0.2 mm 5 mps 684 mmHg 84%
    19:00 +5°C° 0.2 mm 5 mps 684 mmHg 86%
    20:00 +5°C° 0.3 mm 5 mps 684 mmHg 88%
    21:00 +5°C° 0.3 mm 4 mps 684 mmHg 89%
    22:00 +4°C° 0.3 mm 4 mps 685 mmHg 90%
    23:00 +4°C° 0.5 mm 4 mps 684 mmHg 90%

    Day after tomorrow, 21 March, Thursday

    Time Temperature Precipitation Wind Pressure Humidity
    00:00 +4°C° 0.5 mm 4 mps 684 mmHg 90%
    01:00 +4°C° 0.5 mm 4 mps 684 mmHg 90%
    02:00 +4°C° 0.4 mm 4 mps 683 mmHg 91%
    03:00 +3°C° 0.4 mm 5 mps 683 mmHg 91%
    04:00 +3°C° 0.4 mm 5 mps 683 mmHg 91%
    05:00 +3°C° 0.1 mm 5 mps 683 mmHg 91%
    06:00 +3°C° 0.1 mm 5 mps 682 mmHg 91%
    07:00 +3°C° 0.1 mm 5 mps 682 mmHg 91%
    08:00 +5°C° 0 mm 5 mps 683 mmHg 88%
    09:00 +5°C° 0 mm 5 mps 683 mmHg 85%
    10:00 +5°C° 0 mm 5 mps 683 mmHg 82%
    11:00 +6°C° 0 mm 5 mps 683 mmHg 78%
    12:00 +7°C° 0 mm 5 mps 683 mmHg 74%
    13:00 +8°C° 0 mm 5 mps 683 mmHg 70%
    14:00 +8°C° 0.1 mm 5 mps 682 mmHg 69%
    15:00 +10°C° 0.1 mm 4 mps 682 mmHg 68%
    16:00 +10°C° 0.1 mm 4 mps 681 mmHg 67%
    17:00 +8°C° 0 mm 4 mps 681 mmHg 71%
    18:00 +8°C° 0 mm 3 mps 682 mmHg 75%
    19:00 +8°C° 0 mm 3 mps 682 mmHg 79%
    20:00 +7°C° 0 mm 2 mps 682 mmHg 82%
    21:00 +7°C° 0 mm 2 mps 682 mmHg 85%
    22:00 +6°C° 0 mm 2 mps 683 mmHg 88%
    23:00 +6°C° 0 mm 2 mps 682 mmHg 88%

    22 March, Friday

    Time Temperature Precipitation Wind Pressure Humidity
    00:00 +6°C° 0 mm 2 mps 682 mmHg 88%
    01:00 +7°C° 0 mm 1 mps 682 mmHg 88%
    02:00 +7°C° 0 mm 1 mps 682 mmHg 88%
    03:00 +7°C° 0 mm 1 mps 682 mmHg 89%
    04:00 +6°C° 0 mm 1 mps 682 mmHg 89%
    05:00 +6°C° 0 mm 1 mps 682 mmHg 89%
    06:00 +6°C° 0 mm 1 mps 682 mmHg 88%
    07:00 +6°C° 0 mm 1 mps 682 mmHg 88%
    08:00 +7°C° 0.1 mm 1 mps 683 mmHg 85%
    09:00 +8°C° 0.1 mm 1 mps 683 mmHg 81%
    10:00 +9°C° 0.1 mm 1 mps 684 mmHg 77%
    11:00 +10°C° 0.6 mm 1 mps 684 mmHg 73%
    12:00 +10°C° 0.6 mm 1 mps 684 mmHg 68%
    13:00 +11°C° 0.6 mm 1 mps 684 mmHg 64%
    14:00 +11°C° 0.6 mm 1 mps 684 mmHg 61%
    15:00 +11°C° 0.6 mm 1 mps 684 mmHg 58%
    16:00 +12°C° 0.6 mm 2 mps 684 mmHg 55%
    17:00 +11°C° 0.2 mm 1 mps 684 mmHg 57%
    18:00 +11°C° 0.2 mm 1 mps 685 mmHg 59%
    19:00 +11°C° 0.2 mm 1 mps 685 mmHg 62%
    20:00 +10°C° 0 mm 1 mps 686 mmHg 65%
    21:00 +9°C° 0 mm 1 mps 686 mmHg 69%
    22:00 +9°C° 0 mm 1 mps 687 mmHg 72%
    23:00 +8°C° 0 mm 1 mps 687 mmHg 76%

    23 March, Saturday

    Time Temperature Precipitation Wind Pressure Humidity
    00:00 +8°C° 0 mm 1 mps 687 mmHg 81%
    01:00 +7°C° 0 mm 1 mps 687 mmHg 85%
    02:00 +7°C° 0 mm 1 mps 687 mmHg 87%
    03:00 +7°C° 0 mm 1 mps 687 mmHg 88%
    04:00 +5°C° 0 mm 0 mps 686 mmHg 90%
    05:00 +5°C° 0 mm 0 mps 687 mmHg 90%
    06:00 +6°C° 0 mm 1 mps 687 mmHg 90%
    07:00 +6°C° 0 mm 1 mps 687 mmHg 90%
    08:00 +8°C° 0 mm 1 mps 688 mmHg 82%
    09:00 +9°C° 0 mm 1 mps 688 mmHg 73%
    10:00 +11°C° 0 mm 1 mps 688 mmHg 65%
    11:00 +12°C° 0 mm 1 mps 688 mmHg 58%
    12:00 +13°C° 0 mm 1 mps 688 mmHg 51%
    13:00 +14°C° 0 mm 1 mps 688 mmHg 45%
    14:00 +14°C° 0 mm 1 mps 688 mmHg 43%
    15:00 +14°C° 0 mm 1 mps 688 mmHg 42%
    16:00 +15°C° 0 mm 2 mps 688 mmHg 41%
    17:00 +14°C° 0 mm 2 mps 688 mmHg 46%
    18:00 +13°C° 0 mm 2 mps 688 mmHg 50%
    19:00 +12°C° 0 mm 3 mps 688 mmHg 55%
    20:00 +12°C° 0 mm 2 mps 688 mmHg 63%
    21:00 +10°C° 0 mm 2 mps 688 mmHg 71%
    22:00 +10°C° 0 mm 2 mps 689 mmHg 79%
    23:00 +10°C° 0 mm 1 mps 689 mmHg 82%

    24 March, Sunday

    Time Temperature Precipitation Wind Pressure Humidity
    00:00 +10°C° 0 mm 1 mps 688 mmHg 85%
    01:00 +9°C° 0 mm 1 mps 688 mmHg 88%
    02:00 +9°C° 0 mm 1 mps 688 mmHg 90%
    03:00 +9°C° 0 mm 1 mps 688 mmHg 92%
    04:00 +8°C° 0 mm 1 mps 687 mmHg 94%
    05:00 +8°C° 0 mm 1 mps 687 mmHg 94%
    06:00 +8°C° 0 mm 1 mps 687 mmHg 95%
    07:00 +8°C° 0 mm 1 mps 688 mmHg 95%
    08:00 +10°C° 0 mm 1 mps 688 mmHg 83%
    09:00 +12°C° 0 mm 2 mps 688 mmHg 70%
    10:00 +13°C° 0 mm 2 mps 689 mmHg 58%
    11:00 +13°C° 0 mm 3 mps 689 mmHg 52%
    12:00 +14°C° 0 mm 3 mps 689 mmHg 46%
    13:00 +15°C° 0 mm 4 mps 689 mmHg 40%
    14:00 +15°C° 0 mm 4 mps 688 mmHg 40%
    15:00 +17°C° 0 mm 4 mps 688 mmHg 40%
    16:00 +17°C° 0 mm 4 mps 688 mmHg 40%
    17:00 +15°C° 0.1 mm 4 mps 687 mmHg 45%
    18:00 +14°C° 0.1 mm 4 mps 687 mmHg 51%
    19:00 +12°C° 0.1 mm 4 mps 687 mmHg 57%
    20:00 +12°C° 0 mm 3 mps 687 mmHg 59%
    21:00 +12°C° 0 mm 3 mps 687 mmHg 61%
    22:00 +12°C° 0 mm 2 mps 687 mmHg 63%
    23:00 +12°C° 0 mm 2 mps 687 mmHg 65%
    Show more